Other Public Products
Issued by NWS Charleston, SC

Home | Current Version | Previous Version | Text Only | Print | Product List | Glossary On
Versions: 1 2 3 4 5 6 7 8 9 10 11 12 13 14 15 16 17 18 19 20 21 22 23 24 25 26 27 28 29 30 31 32 33 34 35 36 37 38 39 40 41 42 43 44 45 46 47 48 49 50
293
FPUS82 KCHS 230827
OPUCHS

TEST...KCHS/KSAV Gateway Observations...TEST
National Weather Service Charleston SC
300 AM EST MON JAN 23 2017

NOTE: "fair" indicates few or no clouds below 12,000 feet with no
significant weather and/or obstructions to visibility.

SCZ050-WAZ558-NCZ071-TXZ119-213-PAZ071-DCZ001-FLZ074-172-MI076-
NYZ176-178-MAZ016-IL014-TNZ027-NJZ106-GAZ044-MD014-230900-
...Gateway Observations for Charleston International...

CITY           SKY/WX    TMP DP  RH WIND       PRES   REMARKS
Chas Airport   CLEAR     55  48  77 SW8       29.33F
Seattle        PTCLDY    38  33  82 N5        29.60S WCI  34
Charlotte      LGT RAIN  55  53  93 S3        29.18R FOG
Dallas DFW     CLEAR     48  36  63 NW12      29.95R
Dallas Love    CLEAR     48  36  63 NW5       29.97R
Philladelphia  CLOUDY    45  42  89 NE16G29   29.72F FOG
Wash National  LGT RAIN  49  47  93 NE21      29.58F FOG
Baltimore      CLOUDY    46  46 100 E20       29.62S FOG
Miami          CLOUDY    80  70  71 SW23G36   29.54F
Detroit        FOG       43  42  97 NE10      29.62S VSB 1
Newark         CLOUDY    44  39  82 NE21G31   29.81F
Laguardia      CLOUDY    44  39  82 E28G36    29.82F
J F K          CLOUDY    45  42  89 E24G31    29.82F
Boston Logan   CLOUDY    38  32  79 NE24      30.01  WCI  27
Ft. Lauderdale TSTM      77  71  82 W31G43    29.53S
Chicago O`Hare CLOUDY    38  37  97 NW12      29.69F FOG     WCI  30
Chicago Midway CLOUDY    39  35  86 NW12      29.69S WCI  32
Houston Bush   CLEAR     56  38  50 NW9       29.93S
Houston Hobby  CLEAR     57  38  48 NW10      29.93R
Nashville      CLOUDY    56  51  84 NW15G22   29.34R
Atlanta        RAIN      48  47  96 S8        29.20F FOG

$$

GAZ044-118-TXZ119-213-NCZ071-DCZ001-MDZ014-506-PAZ021-071-NJZ106-
NYZ176-178-MAZ106-OHZ011-021-055-MIZ076-KYZ091-ILZ014-INZ047-
MNZ060-230900-
...Gateway Observations for Savannah International...

CITY           SKY/WX    TMP DP  RH WIND       PRES   REMARKS
Savannah Arpt  CLEAR     53  48  83 SW7       29.34F
Atlanta        RAIN      48  47  96 S8        29.20F FOG
Charlotte      LGT RAIN  55  53  93 S3        29.18R FOG
Dallas DFW     CLEAR     48  36  63 NW12      29.95R
Houston Bush   CLEAR     56  38  50 NW9       29.93S
Wash National  LGT RAIN  49  47  93 NE21      29.58F FOG
Wash Dulles    LGT RAIN  48  45  89 E20G29    29.57F FOG
Baltimore      CLOUDY    46  46 100 E20       29.62S FOG
Philadelphia   CLOUDY    45  42  89 NE16G29   29.72F FOG
Newark         CLOUDY    44  39  82 NE21G31   29.81F
Laguardia      CLOUDY    44  39  82 E28G36    29.82F
J F K          CLOUDY    45  42  89 E24G31    29.82F
Boston         CLOUDY    38  32  79 NE24      30.01  WCI  27
Pittsburg      CLOUDY    50  46  86 E12G21    29.51F
Akron          RAIN      50  46  86 E14       29.51S FOG
Cleveland      CLOUDY    41  37  86 NE7       29.57S FOG
Cincinnati     CLOUDY    53  48  83 N17       29.41R
Columbus         N/A     54  48  82 NE12      29.43R
Detroit        FOG       43  42  97 NE10      29.62S VSB 1
Chicago O`Hare CLOUDY    38  37  97 NW12      29.69F FOG     WCI  30
Minneapolis    DRIZZLE   34  32  92 W3        29.81R FOG
Indianapolis   CLOUDY    47  46  97 N17       29.54R FOG

$$




USA.gov is the U.S. government's official web portal to all federal, state and local government web resources and services.